FW1075 Weather Reports


Display with metric or nautical units.
time (UTC)temp
F
wind
direction
speed
MPH
gust
MPH
rain 1hr
in
rain 24hr
in
rain mn
in
humidity
%
barometer
mb
20260508220122 62 351 3.0 6.0 0.00 0.00 0.00 56 1009.6
20260508215123 62 333 3.0 7.0 0.00 0.00 0.00 57 1009.6
20260508214122 61 251 3.0 6.0 0.00 0.00 0.00 58 1009.7
20260508213122 62 333 4.0 6.0 0.00 0.00 0.00 55 1009.7
20260508212123 62 237 3.0 5.0 0.00 0.00 0.00 55 1009.7
20260508211124 63 338 3.0 6.0 0.00 0.00 0.00 54 1009.7
20260508210144 64 308 3.0 5.0 0.00 0.00 0.00 53 1009.7
20260508205122 61 180 3.0 5.0 0.00 0.00 0.00 57 1009.7
20260508204122 61 326 4.0 8.0 0.00 0.00 0.00 55 1009.7
20260508203122 61 329 5.0 8.0 0.00 0.00 0.00 55 1009.6
20260508202142 61 315 4.0 8.0 0.00 0.00 0.00 58 1009.8
20260508201121 60 293 6.0 10.0 0.00 0.00 0.00 58 1009.4
20260508200123 63 282 6.0 13.0 0.00 0.00 0.00 50 1009.2
20260508195124 65 283 4.0 8.0 0.00 0.00 0.00 44 1009.2
20260508194121 65 304 3.0 6.0 0.00 0.00 0.00 45 1009.2
20260508193121 64 273 3.0 6.0 0.00 0.00 0.00 46 1009.5
20260508192121 63 265 3.0 7.0 0.00 0.00 0.00 46 1009.6
20260508191121 63 306 3.0 9.0 0.00 0.00 0.00 45 1009.6
20260508190121 64 260 4.0 8.0 0.00 0.00 0.00 43 1009.6
20260508185121 65 292 4.0 8.0 0.00 0.00 0.00 42 1009.5
20260508184125 66 262 5.0 9.0 0.00 0.00 0.00 41 1009.5
20260508183145 66 268 6.0 12.0 0.00 0.00 0.00 42 1009.6
20260508182122 67 282 5.0 8.0 0.00 0.00 0.00 40 1009.6
20260508181143 70 280 5.0 10.0 0.00 0.00 0.00 39 1009.7
20260508180122 68 277 6.0 10.0 0.00 0.00 0.00 40 1009.7
20260508175123 70 268 5.0 10.0 0.00 0.00 0.00 38 1009.7
20260508174123 68 265 6.0 15.0 0.00 0.00 0.00 40 1009.7
20260508173146 68 239 6.0 13.0 0.00 0.00 0.00 39 1009.9
20260508172122 68 297 6.0 15.0 0.00 0.00 0.00 41 1009.7
20260508171126 67 263 5.0 17.0 0.00 0.00 0.00 42 1009.9
20260508171121 67 262 5.0 17.0 0.00 0.00 0.00 42 1009.9
20260508170122 67 268 5.0 13.0 0.00 0.00 0.00 40 1010.1
20260508165122 67 270 5.0 12.0 0.00 0.00 0.00 41 1010.1
20260508164144 65 267 6.0 11.0 0.00 0.00 0.00 42 1010.0
20260508163122 64 233 7.0 12.0 0.00 0.00 0.00 42 1010.1
20260508162121 65 290 5.0 11.0 0.00 0.00 0.00 42 1010.2
20260508161122 66 283 4.0 7.0 0.00 0.00 0.00 42 1010.2
20260508160122 65 296 6.0 13.0 0.00 0.00 0.00 42 1010.2
20260508155121 65 301 7.0 16.0 0.00 0.00 0.00 41 1010.2
20260508154121 67 306 4.0 10.0 0.00 0.00 0.00 40 1010.4
20260508153123 66 287 4.0 8.0 0.00 0.00 0.00 41 1010.4
20260508152121 66 310 4.0 8.0 0.00 0.00 0.00 43 1010.5
20260508151123 66 298 3.0 7.0 0.00 0.00 0.00 42 1010.6
20260508150121 64 317 6.0 12.0 0.00 0.00 0.00 44 1010.7
20260508145121 63 323 5.0 9.0 0.00 0.00 0.00 43 1010.7
20260508144123 64 274 5.0 7.0 0.00 0.00 0.00 42 1010.7
20260508143121 62 271 5.0 9.0 0.00 0.00 0.00 45 1010.9
20260508142122 62 305 4.0 8.0 0.00 0.00 0.00 46 1010.8
20260508141122 62 311 4.0 7.0 0.00 0.00 0.00 50 1011.0
20260508140143 61 327 5.0 10.0 0.00 0.00 0.00 49 1010.9
20260508135123 61 308 3.0 6.0 0.00 0.00 0.00 52 1010.9
20260508134122 60 286 4.0 8.0 0.00 0.00 0.00 54 1010.8
20260508133144 59 292 5.0 8.0 0.00 0.00 0.00 54 1010.8
20260508132123 59 334 4.0 7.0 0.00 0.00 0.00 57 1010.8
20260508131123 58 280 4.0 6.0 0.00 0.00 0.00 59 1011.0
20260508130121 58 297 4.0 10.0 0.00 0.00 0.00 59 1010.9
20260508125121 57 306 5.0 8.0 0.00 0.00 0.00 60 1010.9
20260508124121 57 304 5.0 9.0 0.00 0.00 0.00 64 1011.0
20260508123121 57 286 5.0 9.0 0.00 0.00 0.00 63 1011.2
20260508122121 57 316 4.0 8.0 0.00 0.00 0.00 66 1011.2
20260508121123 56 304 3.0 6.0 0.00 0.00 0.00 69 1011.1
20260508120143 55 305 4.0 7.0 0.00 0.00 0.00 70 1011.0
20260508115123 55 286 3.0 4.0 0.00 0.00 0.00 72 1011.0
20260508114121 54 325 3.0 7.0 0.00 0.00 0.00 72 1011.0
20260508113121 54 315 3.0 5.0 0.00 0.00 0.00 74 1010.8
20260508112122 53 318 4.0 6.0 0.00 0.00 0.00 77 1010.8
20260508111121 52 312 3.0 6.0 0.00 0.00 0.00 77 1010.6
20260508110121 51 322 2.0 4.0 0.00 0.00 0.00 80 1010.5
20260508105123 50 295 1.0 2.0 0.00 0.00 0.00 86 1010.5
20260508104123 48 270 0.0 1.0 0.00 0.00 0.00 90 1010.4
20260508103123 46 289 0.0 2.0 0.00 0.00 0.00 94 1010.2
20260508102121 46 253 0.0 2.0 0.00 0.00 0.00 93 1010.2
20260508101122 46 296 2.0 4.0 0.00 0.00 0.00 93 1010.1
20260508100122 47 305 2.0 5.0 0.00 0.00 0.00 91 1010.0
20260508095143 47 300 2.0 5.0 0.00 0.00 0.00 91 1010.0
20260508094122 48 326 2.0 3.0 0.00 0.00 0.00 89 1009.7
20260508093146 48 21 3.0 5.0 0.00 0.00 0.00 89 1009.7
20260508092124 48 330 3.0 5.0 0.00 0.00 0.00 89 1009.8
20260508091122 48 331 3.0 6.0 0.00 0.00 0.00 88 1009.7
20260508090121 48 313 4.0 5.0 0.00 0.00 0.00 88 1009.6
20260508085123 48 333 3.0 5.0 0.00 0.01 0.00 88 1009.6
20260508084121 47 332 3.0 6.0 0.00 0.01 0.00 87 1009.5
20260508083122 48 338 4.0 7.0 0.00 0.01 0.00 86 1009.4
20260508082146 48 337 3.0 6.0 0.00 0.01 0.00 85 1009.4
20260508081124 48 351 4.0 8.0 0.00 0.01 0.00 85 1009.1
20260508080142 48 18 4.0 8.0 0.00 0.01 0.00 82 1009.1
20260508075121 48 336 3.0 5.0 0.00 0.01 0.00 81 1009.1
20260508074123 48 327 3.0 7.0 0.00 0.01 0.00 80 1009.2
20260508073142 49 321 4.0 7.0 0.00 0.01 0.00 79 1009.2
20260508072121 49 347 4.0 9.0 0.00 0.01 0.00 77 1009.2
20260508071123 50 332 4.0 7.0 0.00 0.01 0.00 73 1009.2
20260508070146 50 11 4.0 7.0 0.00 0.02 0.00 72 1009.2
20260508065121 50 321 4.0 8.0 0.00 0.02 0.00 75 1009.2
20260508064121 50 2 3.0 7.0 0.00 0.05 0.00 84 1009.2
20260508063122 50 329 4.0 6.0 0.00 0.08 0.00 77 1009.4
20260508062143 49 310 3.0 6.0 0.00 0.11 0.00 74 1008.5
20260508061143 46 344 0.0 2.0 0.00 0.14 0.00 92 1007.9
20260508060122 46 74 1.0 2.0 0.00 0.15 0.00 96 1007.8
20260508055145 45 86 1.0 2.0 0.00 0.15 0.00 99 1007.8
20260508054126 45 93 1.0 3.0 0.00 0.15 0.00 99 1007.7
20260508053125 45 90 0.0 0.0 0.00 0.15 0.00 99 1007.5
20260508052123 46 223 0.0 2.0 0.00 0.15 0.00 99 1007.6
20260508051121 45 56 0.0 2.0 0.00 0.15 0.00 99 1007.2
20260508050142 45 135 0.0 0.0 0.00 0.15 0.00 99 1007.5
20260508045121 45 90 0.0 0.0 0.00 0.15 0.00 99 1007.5
20260508044121 46 45 0.0 0.0 0.00 0.15 0.00 99 1007.4
20260508043121 46 270 0.0 0.0 0.00 0.15 0.00 99 1007.2
20260508042121 46 113 0.0 0.0 0.00 0.15 0.00 98 1007.2
20260508041122 47 180 0.0 0.0 0.00 0.15 0.00 98 1007.5
20260508040121 47 203 0.0 0.0 0.00 0.15 0.00 98 1007.6
20260508035121 47 23 0.0 0.0 0.00 0.15 0.15 98 1007.6
20260508034142 47 68 0.0 0.0 0.00 0.15 0.15 97 1007.6
20260508033127 47 180 0.0 0.0 0.00 0.15 0.15 95 1007.7
20260508032127 48 203 0.0 0.0 0.00 0.15 0.15 96 1007.7
20260508031121 48 338 0.0 0.0 0.00 0.15 0.15 94 1007.6
20260508030123 48 270 0.0 0.0 0.00 0.15 0.15 93 1007.6
20260508025122 48 99 0.0 2.0 0.00 0.16 0.15 93 1007.6
20260508024123 48 113 0.0 0.0 0.00 0.16 0.15 90 1007.7
20260508023122 48 315 0.0 0.0 0.00 0.16 0.15 88 1007.6
20260508022123 49 113 0.0 0.0 0.00 0.16 0.15 86 1007.6
20260508021145 49 73 0.0 1.0 0.00 0.17 0.15 86 1007.5
20260508020123 50 102 0.0 2.0 0.00 0.18 0.15 84 1007.5
20260508015148 51 135 0.0 0.0 0.00 0.18 0.15 81 1007.5
20260508014128 51 237 0.0 2.0 0.00 0.18 0.15 81 1007.6
20260508013122 52 204 1.0 2.0 0.00 0.20 0.15 81 1007.5
20260508012142 53 212 1.0 3.0 0.00 0.20 0.15 79 1007.5
20260508011123 53 110 1.0 3.0 0.00 0.20 0.15 77 1007.2
20260508010121 54 212 2.0 4.0 0.00 0.20 0.15 75 1007.1
20260508005143 55 190 1.0 3.0 0.00 0.20 0.15 73 1007.1
20260508004122 55 266 1.0 2.0 0.00 0.20 0.15 69 1006.9
20260508003123 56 257 0.0 3.0 0.00 0.20 0.15 56 1006.6
20260508002143 57 23 0.0 1.0 0.00 0.20 0.15 53 1006.5
20260508001122 58 73 1.0 2.0 0.00 0.20 0.15 48 1006.4
20260508000121 58 38 2.0 3.0 0.00 0.20 0.15 47 1006.4
20260507235122 59 320 2.0 3.0 0.00 0.20 0.15 46 1006.4
20260507234121 60 320 3.0 5.0 0.00 0.20 0.15 44 1006.1
20260507233121 61 288 4.0 8.0 0.00 0.20 0.15 43 1006.1
20260507232121 61 335 4.0 8.0 0.00 0.20 0.15 43 1006.0
20260507231122 62 307 4.0 6.0 0.00 0.20 0.15 42 1005.9
20260507230122 62 279 4.0 7.0 0.00 0.20 0.15 42 1005.9
20260507225122 62 323 4.0 6.0 0.00 0.20 0.15 42 1005.9
20260507224126 62 308 5.0 9.0 0.00 0.20 0.15 41 1005.8
20260507223121 63 297 5.0 8.0 0.00 0.20 0.15 41 1005.9
20260507222122 63 312 4.0 8.0 0.00 0.20 0.15 40 1005.9
20260507221121 63 296 5.0 10.0 0.00 0.20 0.15 39 1005.9